NOAA 16 DEB

Satellite information

Favourite Embed

Satellite Type and Status

DEBRISIN ORBIT

Key statistics

Satellite NOAA 16 DEB at a glance.

Uptime

9162

Days in orbit

Revolutions

≈ 14.6

Per day

Orbit

SSO

Sun Synchronous Orbit

Inclination

99.0

Latest

Satellite identification and parameters

Extended collection of information and parameters for NOAA 16 DEB.

Object identification

Identified? True

Debris? True

Object name: NOAA 16 DEB

International designator: 2000-055GS

Object number (NORAD): 41290

Object ID (CCSDS): 41290

Country: UNITED STATES OF AMERICA (US)

Current information (Y/N): Y

RCS size: SMALL

Orbital parameters

Period: 98.462 minutes

Inclination: 99.0042 deg

SMA: 7063.29 km

Apoapsis: 695.598 km

Periapsis: 674.712 km

RAAN: 152.6143 deg

Eccentricy: 0.0014785

Argument of periapsis: 106.6905 deg

Mean anomaly: 253.5918 deg

Mean motion: 14.62487716 rev/day

Mean motion (dot): 0.00032115 rev/day2

B* drag term: 0.0063083632 1/REarth

Two-line elements (TLE)

Creation date: Oct. 20, 2025, 6:08 p.m.

Reference frame: TEME

Reference center: EARTH

Epoch: Oct. 20, 2025, 8:45 a.m. UTC

TLE line 0: 0 NOAA 16 DEB

TLE line 1: 1 41290U 00055GS 25293.36519221 .00032115 00000-0 63084-2 0 9991

TLE line 2: 2 41290 99.0042 152.6143 0014785 106.6905 253.5918 14.62487716511552

Live tracking on map

Real-time ground track for satellite NOAA 16 DEB.

In-orbit conjunctions

A list of the most updated potential collisions computed for object NOAA 16 DEB.

Target Orbit TCA Probability of collision Miss distance Type
CZ-6A DEB SSO 2025-01-24 10:03:18 0.0001554349 79.0 (m) DEBRIS
IRIDIUM 33 DEB LEO 2024-09-02 05:49:49 0.0001128163 355.0 (m) DEBRIS
SL-8 R/B LEO 2024-08-16 02:59:42 0.0001577523 889.0 (m) ROCKET BODY

Associated space launch

The NOAA K, L and M POES satellites begin the fifth generation of improved environmental monitoring in support of NOAA missions. The instrument payload has significant improvements and additions/deletions. The instrument changes have effected the spacecraft subsystems and data formats.

NOAA 16 DEB was lifted into orbit during the mission ‘Titan II SLV | NOAA 16’, on board a Titan II SLV space rocket.

The launch took place on Sept. 21, 2000, 10:22 a.m. from Space Launch Complex 4W.

For more information about the launch, click the button.

Launch to space Titan II SLV | NOAA 16
Titan II SLV | NOAA 16

Agency: N/A

Status: Launch Successful

Launch date: Sept. 21, 2000, 10:22 a.m. UTC

Rocket: Titan II SLV

Launch pad: Space Launch Complex 4W

Location: Vandenberg SFB, CA, USA

...

Latest news about this satellite

There are no fresh news available about this satellite. Check back as we update our databases every day.


Newsletter sign-up

Weekly statistics, charts and insights to help you stay on top of the space industry.